Time,TemperatureF,DewpointF,PressureIn,WindDirection,WindDirectionDegrees,WindSpeedMPH,WindSpeedGustMPH,Humidity,HourlyPrecipIn,Conditions,Clouds,dailyrainin,SoftwareType,DateUTC
2013-03-02 00:00:00,31.6,26.0,25.94,WNW,292,6.3,9.6,80,0.00,,,0.00,Rainwise IP-100,2013-03-02 07:00:00,
2013-03-02 00:05:00,31.9,26.0,25.94,WNW,292,5.6,8.2,80,0.00,,,0.00,Rainwise IP-100,2013-03-02 07:05:00,
2013-03-02 00:10:00,32.1,26.0,25.94,WNW,292,5.4,8.2,79,0.00,,,0.00,Rainwise IP-100,2013-03-02 07:10:00,
2013-03-02 00:15:00,32.3,26.0,25.94,WNW,292,5.8,7.0,79,0.00,,,0.00,Rainwise IP-100,2013-03-02 07:15:00,
2013-03-02 00:20:00,32.3,26.0,25.94,WNW,292,4.0,6.8,79,0.00,,,0.00,Rainwise IP-100,2013-03-02 07:20:00,
2013-03-02 00:25:00,32.4,26.0,25.95,WNW,292,5.4,7.5,79,0.00,,,0.00,Rainwise IP-100,2013-03-02 07:25:00,
2013-03-02 00:30:00,32.6,28.0,25.94,WNW,292,5.6,8.2,79,0.00,,,0.00,Rainwise IP-100,2013-03-02 07:30:00,
2013-03-02 00:35:00,32.9,28.0,25.94,WNW,292,5.8,7.7,78,0.00,,,0.00,Rainwise IP-100,2013-03-02 07:35:00,
2013-03-02 00:40:00,32.9,28.0,25.94,WNW,292,7.5,8.4,78,0.00,,,0.00,Rainwise IP-100,2013-03-02 07:40:00,
2013-03-02 00:41:00,32.9,28.0,25.94,WNW,292,6.5,8.4,78,0.00,,,0.00,Rainwise IP-100,2013-03-02 07:41:00,
2013-03-02 00:46:00,33.0,28.0,25.94,WNW,292,7.0,8.2,78,0.00,,,0.00,Rainwise IP-100,2013-03-02 07:46:00,
2013-03-02 00:51:00,33.2,28.0,25.94,WNW,292,7.7,10.0,78,0.00,,,0.00,Rainwise IP-100,2013-03-02 07:51:00,
2013-03-02 00:57:00,33.3,28.0,25.94,WNW,292,8.9,10.7,78,0.00,,,0.00,Rainwise IP-100,2013-03-02 07:57:00,
2013-03-02 01:02:00,33.3,28.0,25.94,NW,315,6.5,9.8,78,0.00,,,0.00,Rainwise IP-100,2013-03-02 08:02:00,
2013-03-02 01:07:00,33.6,28.0,25.94,WNW,292,7.2,10.0,77,0.00,,,0.00,Rainwise IP-100,2013-03-02 08:07:00,
2013-03-02 01:12:00,34.1,28.0,25.94,WNW,292,6.1,8.9,77,0.00,,,0.00,Rainwise IP-100,2013-03-02 08:12:00,
2013-03-02 01:17:00,34.2,28.0,25.94,West,270,4.0,9.1,77,0.00,,,0.00,Rainwise IP-100,2013-03-02 08:17:00,
2013-03-02 01:22:00,34.0,28.0,25.93,WNW,292,5.4,7.7,77,0.00,,,0.00,Rainwise IP-100,2013-03-02 08:22:00,
2013-03-02 01:27:00,33.8,28.0,25.93,West,270,3.5,8.2,77,0.00,,,0.00,Rainwise IP-100,2013-03-02 08:27:00,
2013-03-02 01:32:00,33.8,28.0,25.93,WNW,292,7.9,8.9,77,0.00,,,0.00,Rainwise IP-100,2013-03-02 08:32:00,
2013-03-02 01:37:00,33.8,28.0,25.93,WNW,292,10.0,11.2,77,0.00,,,0.00,Rainwise IP-100,2013-03-02 08:37:00,
2013-03-02 01:42:00,34.0,28.0,25.92,WNW,292,10.7,13.1,77,0.00,,,0.00,Rainwise IP-100,2013-03-02 08:42:00,
2013-03-02 01:47:00,34.3,28.0,25.92,WNW,292,8.6,13.1,77,0.00,,,0.00,Rainwise IP-100,2013-03-02 08:47:00,
2013-03-02 01:52:00,34.7,28.0,25.92,WNW,292,5.1,12.1,76,0.00,,,0.00,Rainwise IP-100,2013-03-02 08:52:00,
2013-03-02 01:57:00,34.9,28.0,25.92,WNW,292,6.1,11.9,76,0.00,,,0.00,Rainwise IP-100,2013-03-02 08:57:00,
2013-03-02 02:02:00,35.0,28.0,25.92,WNW,292,7.2,12.4,76,0.00,,,0.00,Rainwise IP-100,2013-03-02 09:02:00,
2013-03-02 02:07:00,35.2,28.0,25.92,WNW,292,10.3,14.7,76,0.00,,,0.00,Rainwise IP-100,2013-03-02 09:07:00,
2013-03-02 02:12:00,35.4,28.0,25.92,WNW,292,7.9,12.6,75,0.00,,,0.00,Rainwise IP-100,2013-03-02 09:12:00,
2013-03-02 02:17:00,35.5,29.0,25.92,NW,315,6.5,14.0,75,0.00,,,0.00,Rainwise IP-100,2013-03-02 09:17:00,
2013-03-02 02:22:00,35.5,29.0,25.91,WNW,292,3.7,11.9,75,0.00,,,0.00,Rainwise IP-100,2013-03-02 09:22:00,
2013-03-02 02:27:00,35.4,28.0,25.91,WNW,292,8.6,10.5,75,0.00,,,0.00,Rainwise IP-100,2013-03-02 09:27:00,
2013-03-02 02:32:00,35.2,28.0,25.91,WNW,292,6.1,10.3,75,0.00,,,0.00,Rainwise IP-100,2013-03-02 09:32:00,
2013-03-02 02:37:00,35.0,28.0,25.91,WNW,292,4.2,10.5,75,0.00,,,0.00,Rainwise IP-100,2013-03-02 09:37:00,
2013-03-02 02:42:00,34.9,28.0,25.91,West,270,3.5,11.9,76,0.00,,,0.00,Rainwise IP-100,2013-03-02 09:42:00,
2013-03-02 02:47:00,34.8,28.0,25.91,WNW,292,4.7,10.0,76,0.00,,,0.00,Rainwise IP-100,2013-03-02 09:47:00,
2013-03-02 02:52:00,34.6,28.0,25.91,West,270,7.2,9.1,76,0.00,,,0.00,Rainwise IP-100,2013-03-02 09:52:00,
2013-03-02 02:57:00,34.4,28.0,25.91,NNW,337,7.5,10.7,76,0.00,,,0.00,Rainwise IP-100,2013-03-02 09:57:00,
2013-03-02 03:02:00,34.2,28.0,25.91,WNW,292,5.1,7.7,77,0.00,,,0.00,Rainwise IP-100,2013-03-02 10:02:00,
2013-03-02 03:07:00,34.0,28.0,25.91,WSW,247,6.1,11.9,77,0.00,,,0.00,Rainwise IP-100,2013-03-02 10:07:00,
2013-03-02 03:12:00,33.7,28.0,25.90,WNW,292,9.3,11.7,77,0.00,,,0.00,Rainwise IP-100,2013-03-02 10:12:00,
2013-03-02 03:18:00,33.5,28.0,25.90,WNW,292,7.9,11.9,76,0.00,,,0.00,Rainwise IP-100,2013-03-02 10:18:00,
2013-03-02 03:23:00,33.4,26.0,25.90,WNW,292,8.9,11.9,76,0.00,,,0.00,Rainwise IP-100,2013-03-02 10:23:00,
2013-03-02 03:28:00,33.6,28.0,25.90,West,270,6.5,12.4,75,0.00,,,0.00,Rainwise IP-100,2013-03-02 10:28:00,
2013-03-02 03:33:00,33.7,28.0,25.90,WNW,292,6.3,11.4,74,0.00,,,0.00,Rainwise IP-100,2013-03-02 10:33:00,
2013-03-02 03:38:00,33.4,26.0,25.90,WSW,247,7.0,11.0,74,0.00,,,0.00,Rainwise IP-100,2013-03-02 10:38:00,
2013-03-02 03:43:00,33.2,26.0,25.90,West,270,3.0,10.7,74,0.00,,,0.00,Rainwise IP-100,2013-03-02 10:43:00,
2013-03-02 03:48:00,33.4,26.0,25.91,North,360,5.1,13.1,73,0.00,,,0.00,Rainwise IP-100,2013-03-02 10:48:00,
2013-03-02 03:53:00,33.3,26.0,25.91,NNW,337,5.8,9.6,73,0.00,,,0.00,Rainwise IP-100,2013-03-02 10:53:00,
2013-03-02 03:58:00,32.8,26.0,25.90,WNW,292,4.9,8.6,73,0.00,,,0.00,Rainwise IP-100,2013-03-02 10:58:00,
2013-03-02 04:03:00,32.6,26.0,25.90,WNW,292,8.2,9.6,74,0.00,,,0.00,Rainwise IP-100,2013-03-02 11:03:00,
2013-03-02 04:08:00,32.6,26.0,25.91,WNW,292,4.9,12.8,74,0.00,,,0.00,Rainwise IP-100,2013-03-02 11:08:00,
2013-03-02 04:13:00,32.4,24.0,25.91,WNW,292,9.8,11.0,74,0.00,,,0.00,Rainwise IP-100,2013-03-02 11:13:00,
2013-03-02 04:18:00,32.2,26.0,25.90,WNW,292,5.1,10.5,75,0.00,,,0.00,Rainwise IP-100,2013-03-02 11:18:00,
2013-03-02 04:23:00,32.3,24.0,25.91,NNW,337,5.6,12.4,74,0.00,,,0.00,Rainwise IP-100,2013-03-02 11:23:00,
2013-03-02 04:28:00,32.1,24.0,25.91,NW,315,5.6,8.4,74,0.00,,,0.00,Rainwise IP-100,2013-03-02 11:28:00,
2013-03-02 04:33:00,31.7,24.0,25.91,WNW,292,5.6,10.5,74,0.00,,,0.00,Rainwise IP-100,2013-03-02 11:33:00,
2013-03-02 04:38:00,31.5,24.0,25.91,WNW,292,7.0,8.6,74,0.00,,,0.00,Rainwise IP-100,2013-03-02 11:38:00,
2013-03-02 04:43:00,31.3,24.0,25.91,NW,315,7.5,11.0,74,0.00,,,0.00,Rainwise IP-100,2013-03-02 11:43:00,
2013-03-02 04:48:00,31.7,24.0,25.91,WNW,292,9.3,13.3,74,0.00,,,0.00,Rainwise IP-100,2013-03-02 11:48:00,
2013-03-02 04:53:00,31.8,24.0,25.91,NW,315,7.2,12.8,73,0.00,,,0.00,Rainwise IP-100,2013-03-02 11:53:00,
2013-03-02 04:58:00,31.4,23.0,25.91,WNW,292,10.5,13.5,73,0.00,,,0.00,Rainwise IP-100,2013-03-02 11:58:00,
2013-03-02 05:03:00,31.7,24.0,25.91,WNW,292,8.4,13.5,73,0.00,,,0.00,Rainwise IP-100,2013-03-02 12:03:00,
2013-03-02 05:08:00,31.9,24.0,25.91,NW,315,6.5,13.1,72,0.00,,,0.00,Rainwise IP-100,2013-03-02 12:08:00,
2013-03-02 05:13:00,31.6,24.0,25.91,WNW,292,9.6,12.1,72,0.00,,,0.00,Rainwise IP-100,2013-03-02 12:13:00,
2013-03-02 05:18:00,31.0,23.0,25.91,NW,315,9.3,10.3,73,0.00,,,0.00,Rainwise IP-100,2013-03-02 12:18:00,
2013-03-02 05:23:00,30.6,24.0,25.91,WNW,292,6.8,10.5,74,0.00,,,0.00,Rainwise IP-100,2013-03-02 12:23:00,
2013-03-02 05:28:00,30.3,24.0,25.91,WNW,292,9.6,11.4,75,0.00,,,0.00,Rainwise IP-100,2013-03-02 12:28:00,
2013-03-02 05:33:00,30.0,24.0,25.91,WNW,292,8.4,12.4,75,0.00,,,0.00,Rainwise IP-100,2013-03-02 12:33:00,
2013-03-02 05:38:00,29.9,24.0,25.91,NW,315,9.3,11.7,75,0.00,,,0.00,Rainwise IP-100,2013-03-02 12:38:00,
2013-03-02 05:43:00,29.8,24.0,25.90,WNW,292,5.6,10.0,76,0.00,,,0.00,Rainwise IP-100,2013-03-02 12:43:00,
2013-03-02 05:48:00,29.6,24.0,25.91,WNW,292,7.5,11.4,76,0.00,,,0.00,Rainwise IP-100,2013-03-02 12:48:00,
2013-03-02 05:53:00,29.6,24.0,25.91,WNW,292,8.9,11.0,76,0.00,,,0.00,Rainwise IP-100,2013-03-02 12:53:00,
2013-03-02 05:58:00,29.6,24.0,25.90,WNW,292,7.0,12.6,76,0.00,,,0.00,Rainwise IP-100,2013-03-02 12:58:00,
2013-03-02 06:03:00,29.6,24.0,25.91,NW,315,11.0,12.8,76,0.00,,,0.00,Rainwise IP-100,2013-03-02 13:03:00,
2013-03-02 06:08:00,29.8,24.0,25.91,WNW,292,12.1,13.1,75,0.00,,,0.00,Rainwise IP-100,2013-03-02 13:08:00,
2013-03-02 06:13:00,30.5,24.0,25.91,NW,315,10.0,14.2,74,0.00,,,0.00,Rainwise IP-100,2013-03-02 13:13:00,
2013-03-02 06:18:00,30.9,23.0,25.91,WNW,292,6.5,12.6,73,0.00,,,0.00,Rainwise IP-100,2013-03-02 13:18:00,
2013-03-02 06:23:00,31.1,23.0,25.91,WNW,292,9.6,16.8,72,0.00,,,0.00,Rainwise IP-100,2013-03-02 13:23:00,
2013-03-02 06:28:00,31.2,23.0,25.91,WNW,292,10.0,14.9,72,0.00,,,0.00,Rainwise IP-100,2013-03-02 13:28:00,
2013-03-02 06:33:00,31.1,23.0,25.91,WNW,292,8.2,12.1,72,0.00,,,0.00,Rainwise IP-100,2013-03-02 13:33:00,
2013-03-02 06:38:00,31.0,23.0,25.91,NW,315,7.9,11.9,73,0.00,,,0.00,Rainwise IP-100,2013-03-02 13:38:00,
2013-03-02 06:43:00,31.0,23.0,25.91,NW,315,6.8,13.1,73,0.00,,,0.00,Rainwise IP-100,2013-03-02 13:43:00,
2013-03-02 06:48:00,31.0,23.0,25.92,WNW,292,10.3,12.6,73,0.00,,,0.00,Rainwise IP-100,2013-03-02 13:48:00,
2013-03-02 06:53:00,31.2,23.0,25.91,NW,315,7.9,13.1,73,0.00,,,0.00,Rainwise IP-100,2013-03-02 13:53:00,
2013-03-02 06:58:00,31.6,24.0,25.91,WNW,292,9.8,13.5,72,0.00,,,0.00,Rainwise IP-100,2013-03-02 13:58:00,
2013-03-02 07:03:00,32.1,24.0,25.91,NW,315,8.6,12.8,71,0.00,,,0.00,Rainwise IP-100,2013-03-02 14:03:00,
2013-03-02 07:08:00,32.6,24.0,25.91,NW,315,7.0,13.1,71,0.00,,,0.00,Rainwise IP-100,2013-03-02 14:08:00,
2013-03-02 07:13:00,33.2,24.0,25.91,WNW,292,9.3,13.8,70,0.00,,,0.00,Rainwise IP-100,2013-03-02 14:13:00,
2013-03-02 07:18:00,33.6,26.0,25.91,WNW,292,11.0,13.3,69,0.00,,,0.00,Rainwise IP-100,2013-03-02 14:18:00,
2013-03-02 07:23:00,34.0,26.0,25.92,WNW,292,8.2,12.6,68,0.00,,,0.00,Rainwise IP-100,2013-03-02 14:23:00,
2013-03-02 07:28:00,34.5,24.0,25.92,WNW,292,7.9,11.9,67,0.00,,,0.00,Rainwise IP-100,2013-03-02 14:28:00,
2013-03-02 07:33:00,35.1,24.0,25.92,WNW,292,7.9,11.0,67,0.00,,,0.00,Rainwise IP-100,2013-03-02 14:33:00,
2013-03-02 07:38:00,35.6,26.0,25.92,WNW,292,9.1,14.5,66,0.00,,,0.00,Rainwise IP-100,2013-03-02 14:38:00,
2013-03-02 07:43:00,36.0,26.0,25.92,West,270,9.6,13.1,65,0.00,,,0.00,Rainwise IP-100,2013-03-02 14:43:00,
2013-03-02 07:48:00,36.5,26.0,25.92,WNW,292,10.3,14.5,64,0.00,,,0.00,Rainwise IP-100,2013-03-02 14:48:00,
2013-03-02 07:53:00,37.1,26.0,25.92,WNW,292,8.6,11.9,63,0.00,,,0.00,Rainwise IP-100,2013-03-02 14:53:00,
2013-03-02 07:58:00,37.8,26.0,25.93,WNW,292,11.9,13.3,62,0.00,,,0.00,Rainwise IP-100,2013-03-02 14:58:00,
2013-03-02 08:03:00,38.6,28.0,25.93,WNW,292,8.4,13.8,61,0.00,,,0.00,Rainwise IP-100,2013-03-02 15:03:00,
2013-03-02 08:08:00,39.1,26.0,25.93,WNW,292,9.3,12.6,60,0.00,,,0.00,Rainwise IP-100,2013-03-02 15:08:00,
2013-03-02 08:13:00,39.4,26.0,25.93,WNW,292,7.9,13.8,60,0.00,,,0.00,Rainwise IP-100,2013-03-02 15:13:00,
2013-03-02 08:18:00,40.1,28.0,25.93,WNW,292,11.4,14.2,59,0.00,,,0.00,Rainwise IP-100,2013-03-02 15:18:00,
2013-03-02 08:23:00,41.0,28.0,25.93,NW,315,9.8,16.1,58,0.00,,,0.00,Rainwise IP-100,2013-03-02 15:23:00,
2013-03-02 08:28:00,42.0,28.0,25.93,WNW,292,12.1,17.7,56,0.00,,,0.00,Rainwise IP-100,2013-03-02 15:28:00,
2013-03-02 08:33:00,42.9,28.0,25.93,NW,315,10.7,17.3,55,0.00,,,0.00,Rainwise IP-100,2013-03-02 15:33:00,
2013-03-02 08:38:00,43.6,28.0,25.93,NW,315,9.8,16.3,53,0.00,,,0.00,Rainwise IP-100,2013-03-02 15:38:00,
2013-03-02 08:43:00,44.4,28.0,25.94,WNW,292,9.1,19.1,52,0.00,,,0.00,Rainwise IP-100,2013-03-02 15:43:00,
2013-03-02 08:48:00,45.5,29.0,25.93,WNW,292,9.3,17.3,50,0.00,,,0.00,Rainwise IP-100,2013-03-02 15:48:00,
2013-03-02 08:53:00,46.1,28.0,25.93,NNW,337,12.1,20.8,48,0.00,,,0.00,Rainwise IP-100,2013-03-02 15:53:00,
2013-03-02 08:58:00,46.5,28.0,25.93,NW,315,12.8,21.0,47,0.00,,,0.00,Rainwise IP-100,2013-03-02 15:58:00,
2013-03-02 09:03:00,47.1,28.0,25.93,NW,315,10.5,21.5,46,0.00,,,0.00,Rainwise IP-100,2013-03-02 16:03:00,
2013-03-02 09:08:00,47.5,28.0,25.94,WNW,292,11.7,17.0,45,0.00,,,0.00,Rainwise IP-100,2013-03-02 16:08:00,
2013-03-02 09:13:00,47.8,28.0,25.93,NW,315,14.0,20.5,44,0.00,,,0.00,Rainwise IP-100,2013-03-02 16:13:00,
2013-03-02 09:18:00,48.4,28.0,25.94,NW,315,16.1,17.7,44,0.00,,,0.00,Rainwise IP-100,2013-03-02 16:18:00,
2013-03-02 09:23:00,49.1,28.0,25.93,WNW,292,8.9,18.7,43,0.00,,,0.00,Rainwise IP-100,2013-03-02 16:23:00,
2013-03-02 09:28:00,49.7,28.0,25.93,NNW,337,8.4,19.6,42,0.00,,,0.00,Rainwise IP-100,2013-03-02 16:28:00,
2013-03-02 09:33:00,50.2,28.0,25.94,NW,315,10.7,19.6,41,0.00,,,0.00,Rainwise IP-100,2013-03-02 16:33:00,
2013-03-02 09:38:00,50.6,28.0,25.93,NW,315,10.0,18.2,40,0.00,,,0.00,Rainwise IP-100,2013-03-02 16:38:00,
2013-03-02 09:43:00,51.0,28.0,25.93,NW,315,13.8,21.5,39,0.00,,,0.00,Rainwise IP-100,2013-03-02 16:43:00,
2013-03-02 09:48:00,51.4,28.0,25.93,NW,315,10.3,19.1,39,0.00,,,0.00,Rainwise IP-100,2013-03-02 16:48:00,
2013-03-02 09:53:00,52.0,28.0,25.93,WNW,292,9.3,18.4,38,0.00,,,0.00,Rainwise IP-100,2013-03-02 16:53:00,
2013-03-02 09:58:00,52.4,28.0,25.93,WNW,292,10.3,18.4,38,0.00,,,0.00,Rainwise IP-100,2013-03-02 16:58:00,
2013-03-02 10:03:00,52.5,28.0,25.93,NNW,337,11.2,18.9,37,0.00,,,0.00,Rainwise IP-100,2013-03-02 17:03:00,
2013-03-02 10:08:00,53.0,26.0,25.93,NNW,337,14.2,18.7,36,0.00,,,0.00,Rainwise IP-100,2013-03-02 17:08:00,
2013-03-02 10:13:00,53.3,28.0,25.93,NNW,337,11.0,20.5,36,0.00,,,0.00,Rainwise IP-100,2013-03-02 17:13:00,
2013-03-02 10:18:00,53.7,26.0,25.92,NNW,337,12.6,20.3,35,0.00,,,0.00,Rainwise IP-100,2013-03-02 17:18:00,
2013-03-02 10:23:00,53.9,28.0,25.93,NNW,337,13.1,17.0,35,0.00,,,0.00,Rainwise IP-100,2013-03-02 17:23:00,
2013-03-02 10:28:00,54.1,28.0,25.92,WNW,292,10.5,18.9,35,0.00,,,0.00,Rainwise IP-100,2013-03-02 17:28:00,
2013-03-02 10:33:00,54.2,26.0,25.92,NNW,337,3.7,21.9,34,0.00,,,0.00,Rainwise IP-100,2013-03-02 17:33:00,
2013-03-02 10:38:00,54.7,26.0,25.93,NW,315,14.5,20.3,33,0.00,,,0.00,Rainwise IP-100,2013-03-02 17:38:00,
2013-03-02 10:43:00,55.2,28.0,25.91,NNW,337,14.9,24.0,33,0.00,,,0.00,Rainwise IP-100,2013-03-02 17:43:00,
2013-03-02 10:48:00,55.5,26.0,25.92,NNW,337,10.7,21.9,32,0.00,,,0.00,Rainwise IP-100,2013-03-02 17:48:00,
2013-03-02 10:53:00,56.0,26.0,25.92,NNW,337,10.7,17.0,32,0.00,,,0.00,Rainwise IP-100,2013-03-02 17:53:00,
2013-03-02 10:58:00,56.2,26.0,25.92,NNW,337,18.7,27.3,32,0.00,,,0.00,Rainwise IP-100,2013-03-02 17:58:00,
2013-03-02 11:03:00,56.0,26.0,25.92,NNW,337,4.0,24.9,31,0.00,,,0.00,Rainwise IP-100,2013-03-02 18:03:00,
2013-03-02 11:08:00,56.3,26.0,25.91,NNW,337,14.5,22.2,31,0.00,,,0.00,Rainwise IP-100,2013-03-02 18:08:00,
2013-03-02 11:13:00,56.8,28.0,25.92,NNW,337,9.1,20.8,31,0.00,,,0.00,Rainwise IP-100,2013-03-02 18:13:00,
2013-03-02 11:18:00,56.9,26.0,25.91,NNW,337,16.8,20.8,30,0.00,,,0.00,Rainwise IP-100,2013-03-02 18:18:00,
2013-03-02 11:23:00,57.3,26.0,25.92,NNE,22,13.1,24.2,30,0.00,,,0.00,Rainwise IP-100,2013-03-02 18:23:00,
2013-03-02 11:28:00,57.6,26.0,25.91,NNW,337,12.1,20.1,30,0.00,,,0.00,Rainwise IP-100,2013-03-02 18:28:00,
2013-03-02 11:33:00,57.5,26.0,25.91,NNW,337,3.7,19.8,30,0.00,,,0.00,Rainwise IP-100,2013-03-02 18:33:00,
2013-03-02 11:38:00,57.6,26.0,25.91,NNW,337,11.2,22.4,30,0.00,,,0.00,Rainwise IP-100,2013-03-02 18:38:00,
2013-03-02 11:43:00,57.8,28.0,25.90,NNW,337,11.7,23.1,30,0.00,,,0.00,Rainwise IP-100,2013-03-02 18:43:00,
2013-03-02 11:48:00,57.5,26.0,25.90,WNW,292,5.1,28.0,30,0.00,,,0.00,Rainwise IP-100,2013-03-02 18:48:00,
2013-03-02 11:53:00,57.5,26.0,25.90,North,360,6.8,21.2,30,0.00,,,0.00,Rainwise IP-100,2013-03-02 18:53:00,
2013-03-02 11:58:00,57.8,28.0,25.90,NNW,337,6.3,21.0,30,0.00,,,0.00,Rainwise IP-100,2013-03-02 18:58:00,
2013-03-02 12:03:00,58.2,26.0,25.90,NNE,22,8.2,19.8,29,0.00,,,0.00,Rainwise IP-100,2013-03-02 19:03:00,
2013-03-02 12:08:00,58.5,28.0,25.90,WNW,292,3.5,20.3,29,0.00,,,0.00,Rainwise IP-100,2013-03-02 19:08:00,
2013-03-02 12:13:00,58.5,28.0,25.90,NNW,337,4.7,16.8,29,0.00,,,0.00,Rainwise IP-100,2013-03-02 19:13:00,
2013-03-02 12:18:00,58.6,28.0,25.89,NNW,337,9.3,17.0,29,0.00,,,0.00,Rainwise IP-100,2013-03-02 19:18:00,
2013-03-02 12:23:00,58.3,26.0,25.89,NNW,337,4.9,20.3,29,0.00,,,0.00,Rainwise IP-100,2013-03-02 19:23:00,
2013-03-02 12:28:00,57.8,26.0,25.89,WNW,292,6.8,20.1,29,0.00,,,0.00,Rainwise IP-100,2013-03-02 19:28:00,
2013-03-02 12:33:00,57.8,26.0,25.88,NNW,337,6.1,20.8,29,0.00,,,0.00,Rainwise IP-100,2013-03-02 19:33:00,
2013-03-02 12:38:00,58.0,26.0,25.88,NNW,337,13.8,19.8,29,0.00,,,0.00,Rainwise IP-100,2013-03-02 19:38:00,
2013-03-02 12:43:00,58.1,26.0,25.87,NNW,337,13.5,19.6,29,0.00,,,0.00,Rainwise IP-100,2013-03-02 19:43:00,
2013-03-02 12:48:00,58.3,26.0,25.87,NNW,337,11.2,23.6,28,0.00,,,0.00,Rainwise IP-100,2013-03-02 19:48:00,
2013-03-02 12:53:00,58.9,26.0,25.87,NNW,337,16.8,21.2,28,0.00,,,0.00,Rainwise IP-100,2013-03-02 19:53:00,
2013-03-02 12:58:00,58.7,26.0,25.87,North,360,7.7,23.3,28,0.00,,,0.00,Rainwise IP-100,2013-03-02 19:58:00,
2013-03-02 13:03:00,59.1,26.0,25.86,NNW,337,16.1,19.6,27,0.00,,,0.00,Rainwise IP-100,2013-03-02 20:03:00,
2013-03-02 13:08:00,59.5,26.0,25.86,NW,315,10.0,21.7,27,0.00,,,0.00,Rainwise IP-100,2013-03-02 20:08:00,
2013-03-02 13:13:00,58.8,26.0,25.86,WNW,292,11.4,24.7,27,0.00,,,0.00,Rainwise IP-100,2013-03-02 20:13:00,
2013-03-02 13:19:00,58.7,26.0,25.85,NNW,337,11.7,18.2,27,0.00,,,0.00,Rainwise IP-100,2013-03-02 20:19:00,
2013-03-02 13:24:00,59.5,24.0,25.86,NNW,337,17.5,24.0,26,0.00,,,0.00,Rainwise IP-100,2013-03-02 20:24:00,
2013-03-02 13:29:00,59.4,24.0,25.86,NW,315,18.0,29.1,26,0.00,,,0.00,Rainwise IP-100,2013-03-02 20:29:00,
2013-03-02 13:34:00,59.0,24.0,25.86,NNW,337,17.7,23.8,26,0.00,,,0.00,Rainwise IP-100,2013-03-02 20:34:00,
2013-03-02 13:39:00,59.4,24.0,25.85,NW,315,15.2,25.4,26,0.00,,,0.00,Rainwise IP-100,2013-03-02 20:39:00,
2013-03-02 13:44:00,59.5,24.0,25.85,NNW,337,12.4,23.3,26,0.00,,,0.00,Rainwise IP-100,2013-03-02 20:44:00,
2013-03-02 13:49:00,59.4,24.0,25.85,NW,315,10.0,18.2,26,0.00,,,0.00,Rainwise IP-100,2013-03-02 20:49:00,
2013-03-02 13:54:00,59.9,24.0,25.85,NNE,22,1.2,24.2,25,0.00,,,0.00,Rainwise IP-100,2013-03-02 20:54:00,
2013-03-02 13:59:00,60.2,24.0,25.85,NNW,337,10.5,18.9,25,0.00,,,0.00,Rainwise IP-100,2013-03-02 20:59:00,
2013-03-02 14:04:00,60.6,24.0,25.85,North,360,11.2,20.5,25,0.00,,,0.00,Rainwise IP-100,2013-03-02 21:04:00,
2013-03-02 14:09:00,60.9,24.0,25.85,NNW,337,11.0,19.6,24,0.00,,,0.00,Rainwise IP-100,2013-03-02 21:09:00,
2013-03-02 14:14:00,59.9,23.0,25.84,West,270,5.4,17.5,24,0.00,,,0.00,Rainwise IP-100,2013-03-02 21:14:00,
2013-03-02 14:19:00,58.9,23.0,25.84,NNW,337,7.5,17.7,24,0.00,,,0.00,Rainwise IP-100,2013-03-02 21:19:00,
2013-03-02 14:24:00,59.3,23.0,25.84,NNW,337,13.3,16.8,24,0.00,,,0.00,Rainwise IP-100,2013-03-02 21:24:00,
2013-03-02 14:29:00,59.8,23.0,25.83,NW,315,7.9,18.7,24,0.00,,,0.00,Rainwise IP-100,2013-03-02 21:29:00,
2013-03-02 14:34:00,59.8,23.0,25.83,NNW,337,10.0,16.8,24,0.00,,,0.00,Rainwise IP-100,2013-03-02 21:34:00,
2013-03-02 14:39:00,60.3,24.0,25.84,NNW,337,9.6,14.9,24,0.00,,,0.00,Rainwise IP-100,2013-03-02 21:39:00,
2013-03-02 14:44:00,60.8,24.0,25.83,NNW,337,1.6,15.6,24,0.00,,,0.00,Rainwise IP-100,2013-03-02 21:44:00,
2013-03-02 14:49:00,60.9,23.0,25.83,NNW,337,10.7,16.1,23,0.00,,,0.00,Rainwise IP-100,2013-03-02 21:49:00,
2013-03-02 14:54:00,60.5,23.0,25.82,WNW,292,6.8,15.9,23,0.00,,,0.00,Rainwise IP-100,2013-03-02 21:54:00,
2013-03-02 14:59:00,60.1,23.0,25.83,NNW,337,7.7,15.2,24,0.00,,,0.00,Rainwise IP-100,2013-03-02 21:59:00,
2013-03-02 15:04:00,60.4,24.0,25.82,NNW,337,6.3,15.2,24,0.00,,,0.00,Rainwise IP-100,2013-03-02 22:04:00,
2013-03-02 15:09:00,60.3,24.0,25.83,WNW,292,8.9,17.0,24,0.00,,,0.00,Rainwise IP-100,2013-03-02 22:09:00,
2013-03-02 15:14:00,59.8,23.0,25.82,NNW,337,4.0,15.4,24,0.00,,,0.00,Rainwise IP-100,2013-03-02 22:14:00,
2013-03-02 15:19:00,59.8,23.0,25.82,WNW,292,7.2,10.7,24,0.00,,,0.00,Rainwise IP-100,2013-03-02 22:19:00,
2013-03-02 15:24:00,60.0,23.0,25.82,WNW,292,3.0,7.5,24,0.00,,,0.00,Rainwise IP-100,2013-03-02 22:24:00,
2013-03-02 15:29:00,60.2,23.0,25.82,NNW,337,8.4,15.9,23,0.00,,,0.00,Rainwise IP-100,2013-03-02 22:29:00,
2013-03-02 15:34:00,60.4,23.0,25.82,WNW,292,9.1,15.4,23,0.00,,,0.00,Rainwise IP-100,2013-03-02 22:34:00,
2013-03-02 15:39:00,60.1,23.0,25.82,WNW,292,8.4,16.6,23,0.00,,,0.00,Rainwise IP-100,2013-03-02 22:39:00,
2013-03-02 15:44:00,60.0,23.0,25.82,WNW,292,8.6,9.8,23,0.00,,,0.00,Rainwise IP-100,2013-03-02 22:44:00,
2013-03-02 15:49:00,60.1,23.0,25.82,West,270,2.1,11.4,23,0.00,,,0.00,Rainwise IP-100,2013-03-02 22:49:00,
2013-03-02 15:54:00,60.3,23.0,25.82,WNW,292,8.2,15.4,23,0.00,,,0.00,Rainwise IP-100,2013-03-02 22:54:00,
2013-03-02 15:59:00,60.7,23.0,25.81,WNW,292,9.1,17.3,23,0.00,,,0.00,Rainwise IP-100,2013-03-02 22:59:00,
2013-03-02 16:04:00,60.7,23.0,25.81,WNW,292,8.4,16.1,23,0.00,,,0.00,Rainwise IP-100,2013-03-02 23:04:00,
2013-03-02 16:09:00,60.7,23.0,25.81,NW,315,7.9,15.4,23,0.00,,,0.00,Rainwise IP-100,2013-03-02 23:09:00,
2013-03-02 16:14:00,60.5,23.0,25.82,NW,315,4.9,13.5,23,0.00,,,0.00,Rainwise IP-100,2013-03-02 23:14:00,
2013-03-02 16:19:00,60.6,23.0,25.82,WNW,292,10.0,14.2,23,0.00,,,0.00,Rainwise IP-100,2013-03-02 23:19:00,
2013-03-02 16:24:00,60.7,23.0,25.82,WNW,292,8.4,14.5,22,0.00,,,0.00,Rainwise IP-100,2013-03-02 23:24:00,
2013-03-02 16:29:00,60.7,23.0,25.81,NW,315,10.3,13.5,22,0.00,,,0.00,Rainwise IP-100,2013-03-02 23:29:00,
2013-03-02 16:34:00,60.5,23.0,25.82,NNW,337,10.5,16.8,22,0.00,,,0.00,Rainwise IP-100,2013-03-02 23:34:00,
2013-03-02 16:39:00,60.2,23.0,25.81,WNW,292,8.4,16.1,23,0.00,,,0.00,Rainwise IP-100,2013-03-02 23:39:00,
2013-03-02 16:44:00,60.0,23.0,25.82,NNW,337,5.6,13.1,23,0.00,,,0.00,Rainwise IP-100,2013-03-02 23:44:00,
2013-03-02 16:49:00,59.8,23.0,25.82,WNW,292,6.5,13.5,23,0.00,,,0.00,Rainwise IP-100,2013-03-02 23:49:00,
2013-03-02 16:54:00,59.4,23.0,25.82,NW,315,4.4,11.0,23,0.00,,,0.00,Rainwise IP-100,2013-03-02 23:54:00,
2013-03-02 16:59:00,59.1,23.0,25.82,NW,315,5.8,8.9,24,0.00,,,0.00,Rainwise IP-100,2013-03-02 23:59:00,
2013-03-02 17:04:00,59.0,23.0,25.82,NNW,337,9.3,14.0,24,0.00,,,0.00,Rainwise IP-100,2013-03-03 00:04:00,
2013-03-02 17:09:00,58.8,23.0,25.82,NNW,337,9.1,12.8,24,0.00,,,0.00,Rainwise IP-100,2013-03-03 00:09:00,
2013-03-02 17:14:00,58.6,23.0,25.82,NNW,337,4.7,12.4,24,0.00,,,0.00,Rainwise IP-100,2013-03-03 00:14:00,
2013-03-02 17:19:00,58.3,23.0,25.82,NNW,337,5.8,9.1,24,0.00,,,0.00,Rainwise IP-100,2013-03-03 00:19:00,
2013-03-02 17:24:00,57.9,23.0,25.83,NNW,337,4.7,8.4,25,0.00,,,0.00,Rainwise IP-100,2013-03-03 00:24:00,
2013-03-02 17:29:00,57.2,23.0,25.83,NNW,337,6.3,7.0,26,0.00,,,0.00,Rainwise IP-100,2013-03-03 00:29:00,
2013-03-02 17:34:00,56.4,23.0,25.83,NNW,337,7.0,7.7,27,0.00,,,0.00,Rainwise IP-100,2013-03-03 00:34:00,
2013-03-02 17:39:00,55.4,23.0,25.82,NNW,337,3.5,7.5,28,0.00,,,0.00,Rainwise IP-100,2013-03-03 00:39:00,
2013-03-02 17:44:00,54.5,24.0,25.82,NNW,337,4.7,6.8,30,0.00,,,0.00,Rainwise IP-100,2013-03-03 00:44:00,
2013-03-02 17:49:00,54.1,24.0,25.82,NNW,337,4.0,6.8,31,0.00,,,0.00,Rainwise IP-100,2013-03-03 00:49:00,
2013-03-02 17:54:00,53.9,24.0,25.82,NNW,337,4.9,6.3,31,0.00,,,0.00,Rainwise IP-100,2013-03-03 00:54:00,
2013-03-02 17:59:00,53.4,24.0,25.82,NNW,337,3.3,6.3,32,0.00,,,0.00,Rainwise IP-100,2013-03-03 00:59:00,
2013-03-02 18:04:00,52.8,24.0,25.82,NNW,337,4.2,5.1,33,0.00,,,0.00,Rainwise IP-100,2013-03-03 01:04:00,
2013-03-02 18:09:00,52.2,24.0,25.82,NNW,337,3.5,4.4,34,0.00,,,0.00,Rainwise IP-100,2013-03-03 01:09:00,
2013-03-02 18:14:00,51.2,24.0,25.82,NNW,337,4.7,4.7,35,0.00,,,0.00,Rainwise IP-100,2013-03-03 01:14:00,
2013-03-02 18:19:00,50.2,24.0,25.83,NNW,337,4.7,4.9,36,0.00,,,0.00,Rainwise IP-100,2013-03-03 01:19:00,
2013-03-02 18:24:00,49.6,24.0,25.82,NNW,337,5.1,5.4,37,0.00,,,0.00,Rainwise IP-100,2013-03-03 01:24:00,
2013-03-02 18:29:00,49.3,24.0,25.82,NNW,337,5.1,5.6,38,0.00,,,0.00,Rainwise IP-100,2013-03-03 01:29:00,
2013-03-02 18:34:00,49.1,26.0,25.82,NNW,337,4.9,5.4,39,0.00,,,0.00,Rainwise IP-100,2013-03-03 01:34:00,
2013-03-02 18:39:00,49.0,24.0,25.82,NNW,337,4.2,7.0,38,0.00,,,0.00,Rainwise IP-100,2013-03-03 01:39:00,
2013-03-02 18:44:00,49.0,24.0,25.82,North,360,5.6,6.5,38,0.00,,,0.00,Rainwise IP-100,2013-03-03 01:44:00,
2013-03-02 18:49:00,48.7,24.0,25.82,North,360,7.0,7.0,38,0.00,,,0.00,Rainwise IP-100,2013-03-03 01:49:00,
2013-03-02 18:54:00,48.7,24.0,25.82,North,360,5.8,7.2,38,0.00,,,0.00,Rainwise IP-100,2013-03-03 01:54:00,
2013-03-02 18:59:00,49.0,24.0,25.82,North,360,5.8,6.8,38,0.00,,,0.00,Rainwise IP-100,2013-03-03 01:59:00,
2013-03-02 19:04:00,49.0,24.0,25.81,North,360,6.1,6.3,38,0.00,,,0.00,Rainwise IP-100,2013-03-03 02:04:00,
2013-03-02 19:09:00,49.1,24.0,25.82,NNE,22,5.1,6.5,38,0.00,,,0.00,Rainwise IP-100,2013-03-03 02:09:00,
2013-03-02 19:14:00,49.1,24.0,25.81,NNE,22,5.1,6.1,38,0.00,,,0.00,Rainwise IP-100,2013-03-03 02:14:00,
2013-03-02 19:19:00,49.3,24.0,25.81,NNE,22,5.1,6.8,37,0.00,,,0.00,Rainwise IP-100,2013-03-03 02:19:00,
2013-03-02 19:24:00,48.7,24.0,25.81,North,360,4.7,6.3,37,0.00,,,0.00,Rainwise IP-100,2013-03-03 02:24:00,
2013-03-02 19:29:00,46.9,23.0,25.81,North,360,4.4,5.8,39,0.00,,,0.00,Rainwise IP-100,2013-03-03 02:29:00,
2013-03-02 19:34:00,45.2,24.0,25.81,North,360,5.6,5.8,42,0.00,,,0.00,Rainwise IP-100,2013-03-03 02:34:00,
2013-03-02 19:39:00,44.5,24.0,25.81,NNW,337,6.1,6.8,43,0.00,,,0.00,Rainwise IP-100,2013-03-03 02:39:00,
2013-03-02 19:44:00,44.2,24.0,25.81,North,360,5.8,7.2,44,0.00,,,0.00,Rainwise IP-100,2013-03-03 02:44:00,
2013-03-02 19:49:00,43.6,24.0,25.81,North,360,3.3,7.0,45,0.00,,,0.00,Rainwise IP-100,2013-03-03 02:49:00,
2013-03-02 19:54:00,42.9,24.0,25.81,North,360,3.3,4.9,47,0.00,,,0.00,Rainwise IP-100,2013-03-03 02:54:00,
2013-03-02 19:59:00,42.4,24.0,25.81,North,360,1.6,4.2,47,0.00,,,0.00,Rainwise IP-100,2013-03-03 02:59:00,
2013-03-02 20:04:00,42.2,24.0,25.80,North,360,0.0,2.1,48,0.00,,,0.00,Rainwise IP-100,2013-03-03 03:04:00,
2013-03-02 20:09:00,41.6,24.0,25.80,North,360,1.4,1.6,49,0.00,,,0.00,Rainwise IP-100,2013-03-03 03:09:00,
2013-03-02 20:14:00,40.2,24.0,25.80,NNW,337,3.5,4.4,52,0.00,,,0.00,Rainwise IP-100,2013-03-03 03:14:00,
2013-03-02 20:19:00,39.1,24.0,25.80,NNW,337,1.6,4.2,54,0.00,,,0.00,Rainwise IP-100,2013-03-03 03:19:00,
2013-03-02 20:24:00,38.3,24.0,25.81,NNW,337,0.0,2.6,55,0.00,,,0.00,Rainwise IP-100,2013-03-03 03:24:00,
2013-03-02 20:29:00,37.3,24.0,25.80,NNW,337,1.9,1.9,57,0.00,,,0.00,Rainwise IP-100,2013-03-03 03:29:00,
2013-03-02 20:34:00,36.6,24.0,25.80,WNW,292,4.7,4.7,59,0.00,,,0.00,Rainwise IP-100,2013-03-03 03:34:00,
2013-03-02 20:39:00,36.5,24.0,25.81,WNW,292,1.4,4.9,61,0.00,,,0.00,Rainwise IP-100,2013-03-03 03:39:00,
2013-03-02 20:44:00,36.1,24.0,25.81,WNW,292,2.6,2.6,62,0.00,,,0.00,Rainwise IP-100,2013-03-03 03:44:00,
2013-03-02 20:49:00,35.6,24.0,25.81,West,270,4.0,4.2,63,0.00,,,0.00,Rainwise IP-100,2013-03-03 03:49:00,
2013-03-02 20:54:00,35.7,24.0,25.81,West,270,2.3,4.0,63,0.00,,,0.00,Rainwise IP-100,2013-03-03 03:54:00,
2013-03-02 20:59:00,36.0,24.0,25.81,West,270,3.7,4.2,63,0.00,,,0.00,Rainwise IP-100,2013-03-03 03:59:00,
2013-03-02 21:04:00,36.2,24.0,25.80,WNW,292,4.7,5.4,63,0.00,,,0.00,Rainwise IP-100,2013-03-03 04:04:00,
2013-03-02 21:09:00,36.1,24.0,25.80,NW,315,4.9,5.8,63,0.00,,,0.00,Rainwise IP-100,2013-03-03 04:09:00,
2013-03-02 21:14:00,35.4,24.0,25.80,NW,315,5.6,5.8,63,0.00,,,0.00,Rainwise IP-100,2013-03-03 04:14:00,
2013-03-02 21:19:00,34.8,24.0,25.79,NW,315,4.9,7.0,65,0.00,,,0.00,Rainwise IP-100,2013-03-03 04:19:00,
2013-03-02 21:24:00,34.4,24.0,25.80,NW,315,4.9,6.3,66,0.00,,,0.00,Rainwise IP-100,2013-03-03 04:24:00,
2013-03-02 21:29:00,33.9,24.0,25.79,NW,315,4.2,6.3,67,0.00,,,0.00,Rainwise IP-100,2013-03-03 04:29:00,
2013-03-02 21:34:00,33.5,24.0,25.79,NW,315,4.7,6.1,67,0.00,,,0.00,Rainwise IP-100,2013-03-03 04:34:00,
2013-03-02 21:39:00,32.8,24.0,25.80,WNW,292,2.6,5.1,68,0.00,,,0.00,Rainwise IP-100,2013-03-03 04:39:00,
2013-03-02 21:44:00,32.0,23.0,25.79,WNW,292,5.1,6.5,69,0.00,,,0.00,Rainwise IP-100,2013-03-03 04:44:00,
2013-03-02 21:49:00,31.7,24.0,25.79,WNW,292,2.8,5.4,70,0.00,,,0.00,Rainwise IP-100,2013-03-03 04:49:00,
2013-03-02 21:54:00,31.9,24.0,25.78,WNW,292,4.7,5.1,71,0.00,,,0.00,Rainwise IP-100,2013-03-03 04:54:00,
2013-03-02 21:59:00,32.5,24.0,25.79,WNW,292,5.6,6.5,71,0.00,,,0.00,Rainwise IP-100,2013-03-03 04:59:00,
2013-03-02 22:00:00,32.5,24.0,25.79,NW,315,6.1,6.5,71,0.00,,,0.00,Rainwise IP-100,2013-03-03 05:00:00,
2013-03-02 22:05:00,33.2,24.0,25.78,NW,315,5.4,7.2,70,0.00,,,0.00,Rainwise IP-100,2013-03-03 05:05:00,
2013-03-02 22:10:00,33.2,24.0,25.78,NW,315,7.2,7.2,69,0.00,,,0.00,Rainwise IP-100,2013-03-03 05:10:00,
2013-03-02 22:15:00,32.7,24.0,25.78,WNW,292,5.4,7.5,69,0.00,,,0.00,Rainwise IP-100,2013-03-03 05:15:00,
2013-03-02 22:20:00,32.2,24.0,25.78,NW,315,4.7,8.2,70,0.00,,,0.00,Rainwise IP-100,2013-03-03 05:20:00,
2013-03-02 22:25:00,31.8,24.0,25.78,WNW,292,6.3,7.5,71,0.00,,,0.00,Rainwise IP-100,2013-03-03 05:25:00,
2013-03-02 22:30:00,31.5,24.0,25.78,WNW,292,4.7,7.2,71,0.00,,,0.00,Rainwise IP-100,2013-03-03 05:30:00,
2013-03-02 22:35:00,31.6,24.0,25.77,WNW,292,8.6,9.3,72,0.00,,,0.00,Rainwise IP-100,2013-03-03 05:35:00,
2013-03-02 22:40:00,32.8,24.0,25.77,WNW,292,5.4,8.9,71,0.00,,,0.00,Rainwise IP-100,2013-03-03 05:40:00,
2013-03-02 22:45:00,32.7,24.0,25.78,West,270,2.6,7.0,70,0.00,,,0.00,Rainwise IP-100,2013-03-03 05:45:00,
2013-03-02 22:50:00,31.5,24.0,25.77,West,270,2.6,6.8,71,0.00,,,0.00,Rainwise IP-100,2013-03-03 05:50:00,
2013-03-02 22:55:00,31.4,23.0,25.77,WNW,292,4.9,4.9,72,0.00,,,0.00,Rainwise IP-100,2013-03-03 05:55:00,
2013-03-02 23:00:00,31.6,24.0,25.77,WNW,292,4.9,6.5,72,0.00,,,0.00,Rainwise IP-100,2013-03-03 06:00:00,
2013-03-02 23:05:00,31.7,24.0,25.76,WNW,292,3.7,5.6,72,0.00,,,0.00,Rainwise IP-100,2013-03-03 06:05:00,
2013-03-02 23:10:00,31.5,24.0,25.75,WNW,292,3.7,4.4,72,0.00,,,0.00,Rainwise IP-100,2013-03-03 06:10:00,
2013-03-02 23:15:00,31.2,23.0,25.75,WNW,292,3.3,4.2,72,0.00,,,0.00,Rainwise IP-100,2013-03-03 06:15:00,
2013-03-02 23:20:00,31.1,23.0,25.75,WNW,292,3.3,4.2,73,0.00,,,0.00,Rainwise IP-100,2013-03-03 06:20:00,
2013-03-02 23:25:00,30.9,23.0,25.75,West,270,3.0,5.8,73,0.00,,,0.00,Rainwise IP-100,2013-03-03 06:25:00,
2013-03-02 23:30:00,30.8,24.0,25.75,WNW,292,6.1,7.2,74,0.00,,,0.00,Rainwise IP-100,2013-03-03 06:30:00,
2013-03-02 23:35:00,31.2,24.0,25.75,West,270,3.3,7.7,74,0.00,,,0.00,Rainwise IP-100,2013-03-03 06:35:00,
2013-03-02 23:40:00,31.4,24.0,25.75,West,270,0.0,5.1,74,0.00,,,0.00,Rainwise IP-100,2013-03-03 06:40:00,
2013-03-02 23:45:00,31.4,24.0,25.75,SSE,157,0.0,2.6,74,0.00,,,0.00,Rainwise IP-100,2013-03-03 06:45:00,
2013-03-02 23:50:00,31.5,24.0,25.75,WSW,247,3.3,4.7,74,0.00,,,0.00,Rainwise IP-100,2013-03-03 06:50:00,
2013-03-02 23:55:00,31.7,24.0,25.75,West,270,2.1,4.9,74,0.00,,,0.00,Rainwise IP-100,2013-03-03 06:55:00,